UAE3Y KDFW-OMDB

Flight info

Callsign UAE3Y
Flight time N/A
Altitude 33000
Route ZACHH4 BSKAT DCT KM30I DCT IIU/N0486F350 DCT HNN DCT MRB DCT EMI DCT RBV DCT DOVEY/M084F350 DCT 41N060W 43N050W 43N040W/M084F370 4130N03000W 41N020W DCT DETOX/N0487F370 DCT RIVRO DCT BARDI DCT RIDAV/N0490F390 DCT DIPOL DCT NVS DCT NANDO L150 ASTRO/N0479F380 DCT LASPO/N0481F390 DCT LUXUR UM134 ANB UA411 MORJA DCT SONAK DCT DINUX DCT BONAR M980 LOSUL M855 MMA P751 DASUM Y234 FYM M872 ALMOD/N0487F410 M872 BDB Y214 RAPMA DCT KUVSO DCT KATIT DCT PEKEM M628 RIGIL G783 ELUDA/N0463F350 G783 ASPED Q308 KIPOK Q568 IMPED
Aircraft A388/J-SADE2E3FGHIJ3J4J5M1RWXY/LB1D1

Departure

Time 2026-05-03 22:42
Airport Dallas Fort Worth International Airport (KDFW)

Arrival

Time N/A
Airport Dubai International Airport (OMDB)
Time Latitude Longitude Altitude Speed Heading
2026-05-03 21:59 32.90023 -97.04585 603 ft 0 kts 149°
2026-05-03 22:23 32.90037 -97.04596 603 ft 3 kts 150°
2026-05-03 22:24 32.90057 -97.04605 603 ft 4 kts 179°
2026-05-03 22:24 32.90071 -97.04600 603 ft 4 kts 224°
2026-05-03 22:24 32.90080 -97.04580 603 ft 4 kts 261°
2026-05-03 22:24 32.90081 -97.04550 603 ft 4 kts 270°
2026-05-03 22:25 32.90081 -97.04518 603 ft 4 kts 270°
2026-05-03 22:25 32.90081 -97.04507 603 ft 0 kts 270°
2026-05-03 22:27 32.90081 -97.04509 603 ft 0 kts 269°
2026-05-03 22:28 32.90081 -97.04512 603 ft 2 kts 269°
2026-05-03 22:28 32.90081 -97.04538 603 ft 5 kts 269°
2026-05-03 22:29 32.90080 -97.04587 603 ft 7 kts 269°
2026-05-03 22:29 32.90080 -97.04647 603 ft 8 kts 270°
2026-05-03 22:29 32.90081 -97.04687 602 ft 5 kts 272°
2026-05-03 22:29 32.90084 -97.04732 602 ft 5 kts 292°
2026-05-03 22:30 32.90100 -97.04749 602 ft 4 kts 335°
2026-05-03 22:30 32.90141 -97.04757 602 ft 8 kts 358°
2026-05-03 22:30 32.90211 -97.04760 601 ft 12 kts 358°
2026-05-03 22:30 32.90303 -97.04764 602 ft 14 kts 358°
2026-05-03 22:31 32.90410 -97.04763 602 ft 17 kts
2026-05-03 22:31 32.90530 -97.04760 602 ft 14 kts
2026-05-03 22:31 32.90641 -97.04759 602 ft 17 kts
2026-05-03 22:31 32.90772 -97.04758 603 ft 20 kts 360°
2026-05-03 22:32 32.90897 -97.04759 619 ft 15 kts 360°
2026-05-03 22:32 32.90967 -97.04759 617 ft 7 kts 360°
2026-05-03 22:32 32.90998 -97.04749 614 ft 3 kts 57°
2026-05-03 22:32 32.91010 -97.04706 619 ft 7 kts 84°
2026-05-03 22:33 32.91012 -97.04630 618 ft 11 kts 89°
2026-05-03 22:33 32.91013 -97.04519 603 ft 16 kts 89°
2026-05-03 22:33 32.91013 -97.04379 617 ft 17 kts 91°
2026-05-03 22:33 32.91011 -97.04241 626 ft 18 kts 91°
2026-05-03 22:34 32.91009 -97.04088 624 ft 18 kts 91°
2026-05-03 22:34 32.91007 -97.03940 620 ft 17 kts 91°
2026-05-03 22:34 32.91005 -97.03793 612 ft 20 kts 91°
2026-05-03 22:34 32.91002 -97.03595 590 ft 25 kts 91°
2026-05-03 22:35 32.91002 -97.03495 589 ft 11 kts 88°
2026-05-03 22:35 32.91004 -97.03399 588 ft 12 kts 88°
2026-05-03 22:35 32.91007 -97.03291 586 ft 14 kts 89°
2026-05-03 22:35 32.91008 -97.03211 584 ft 6 kts 75°
2026-05-03 22:36 32.91031 -97.03185 585 ft 5 kts 17°
2026-05-03 22:36 32.91064 -97.03183 586 ft 6 kts 358°
2026-05-03 22:36 32.91112 -97.03185 585 ft 8 kts 358°
2026-05-03 22:36 32.91166 -97.03188 587 ft 8 kts 358°
2026-05-03 22:37 32.91226 -97.03189 587 ft 9 kts
2026-05-03 22:37 32.91297 -97.03188 587 ft 12 kts
2026-05-03 22:37 32.91394 -97.03187 584 ft 17 kts
2026-05-03 22:37 32.91491 -97.03186 582 ft 7 kts
2026-05-03 22:38 32.91535 -97.03185 582 ft 5 kts 11°
2026-05-03 22:38 32.91549 -97.03173 582 ft 3 kts 56°
2026-05-03 22:38 32.91561 -97.03126 580 ft 8 kts 85°
2026-05-03 22:38 32.91562 -97.03064 580 ft 6 kts 90°
2026-05-03 22:39 32.91562 -97.03021 581 ft 2 kts 93°
2026-05-03 22:39 32.91559 -97.03007 581 ft 0 kts 120°
2026-05-03 22:39 32.91556 -97.03002 586 ft 1 kts 143°
2026-05-03 22:39 32.91555 -97.03001 585 ft 0 kts 152°
2026-05-03 22:40 32.91536 -97.02992 583 ft 4 kts 171°
2026-05-03 22:40 32.91528 -97.02991 583 ft 0 kts 177°
2026-05-03 22:41 32.91426 -97.02988 584 ft 45 kts 180°
2026-05-03 22:41 32.90878 -97.02990 582 ft 110 kts 180°
2026-05-03 22:41 32.89942 -97.02994 582 ft 155 kts 180°
2026-05-03 22:41 32.88780 -97.02997 720 ft 171 kts 180°
2026-05-03 22:42 32.87565 -97.02991 1050 ft 178 kts 179°
2026-05-03 22:42 32.86381 -97.02952 1692 ft 164 kts 177°
2026-05-03 22:42 32.85232 -97.02718 2045 ft 173 kts 169°
2026-05-03 22:42 32.84066 -97.02232 2287 ft 183 kts 160°
2026-05-03 22:43 32.82855 -97.01626 2399 ft 196 kts 161°
2026-05-03 22:43 32.81540 -97.01004 2474 ft 213 kts 161°
2026-05-03 22:43 32.80111 -97.00347 2801 ft 228 kts 161°
2026-05-03 22:43 32.78644 -96.99399 2976 ft 256 kts 140°
2026-05-03 22:44 32.77621 -96.97619 3505 ft 269 kts 113°
2026-05-03 22:44 32.77010 -96.95505 4150 ft 272 kts 111°
2026-05-03 22:44 32.76597 -96.93286 4831 ft 277 kts 98°
2026-05-03 22:44 32.76595 -96.90975 5494 ft 283 kts 90°
2026-05-03 22:45 32.76699 -96.88647 6176 ft 283 kts 91°
2026-05-03 22:45 32.76780 -96.86299 6775 ft 286 kts 90°
2026-05-03 22:45 32.76934 -96.83923 7365 ft 291 kts 81°
2026-05-03 22:45 32.77553 -96.81617 7913 ft 299 kts 65°
2026-05-03 22:46 32.78581 -96.79457 8618 ft 297 kts 61°
2026-05-03 22:46 32.79602 -96.77303 9158 ft 305 kts 62°
2026-05-03 22:46 32.80283 -96.75833 9558 ft 306 kts 61°
2026-05-03 22:46 32.81301 -96.73622 10214 ft 306 kts 61°
2026-05-03 22:47 32.82349 -96.71346 10453 ft 322 kts 61°
2026-05-03 22:47 32.83450 -96.68956 10628 ft 338 kts 61°
2026-05-03 22:47 32.84605 -96.66445 10796 ft 353 kts 61°
2026-05-03 22:47 32.85790 -96.63869 11200 ft 359 kts 61°
2026-05-03 22:48 32.86999 -96.61244 11601 ft 365 kts 61°
2026-05-03 22:48 32.88209 -96.58617 12298 ft 362 kts 61°
2026-05-03 22:48 32.89429 -96.55968 12780 ft 366 kts 61°
2026-05-03 22:48 32.90651 -96.53308 13323 ft 368 kts 61°
2026-05-03 22:49 32.91883 -96.50625 13874 ft 369 kts 62°
2026-05-03 22:49 32.93121 -96.47928 14267 ft 375 kts 61°
2026-05-03 22:49 32.94375 -96.45190 14769 ft 375 kts 60°
2026-05-03 22:49 32.95627 -96.42458 15248 ft 378 kts 60°
2026-05-03 22:50 32.96887 -96.39710 15703 ft 380 kts 60°
2026-05-03 22:50 32.98161 -96.36923 16060 ft 385 kts 60°
2026-05-03 22:50 32.99437 -96.34131 16580 ft 385 kts 60°
2026-05-03 22:50 33.00567 -96.31217 16994 ft 389 kts 66°
2026-05-03 22:51 33.01609 -96.28221 17383 ft 393 kts 65°
2026-05-03 22:51 33.02674 -96.25219 17823 ft 395 kts 65°
2026-05-03 22:51 33.03752 -96.22191 18205 ft 399 kts 65°
2026-05-03 22:51 33.04840 -96.19135 18582 ft 402 kts 65°
2026-05-03 22:52 33.05929 -96.16063 18966 ft 403 kts 65°
2026-05-03 22:52 33.07023 -96.12972 19324 ft 406 kts 65°
2026-05-03 22:52 33.08121 -96.09868 19676 ft 408 kts 64°
2026-05-03 22:52 33.09229 -96.06729 19986 ft 412 kts 64°
2026-05-03 22:53 33.10339 -96.03579 20350 ft 413 kts 64°
2026-05-03 22:53 33.11457 -96.00406 20701 ft 415 kts 64°
2026-05-03 22:53 33.12577 -95.97222 21048 ft 418 kts 64°
2026-05-03 22:53 33.13704 -95.94016 21396 ft 420 kts 64°
2026-05-03 22:54 33.14836 -95.90794 21721 ft 422 kts 64°
2026-05-03 22:54 33.15970 -95.87561 22063 ft 424 kts 64°
2026-05-03 22:54 33.17111 -95.84307 22400 ft 426 kts 64°
2026-05-03 22:54 33.18251 -95.81047 22736 ft 428 kts 64°
2026-05-03 22:55 33.19400 -95.77750 23055 ft 431 kts 64°
2026-05-03 22:55 33.20552 -95.74443 23405 ft 433 kts 64°
2026-05-03 22:55 33.21706 -95.71125 23710 ft 435 kts 64°
2026-05-03 22:55 33.22868 -95.67783 24025 ft 436 kts 64°
2026-05-03 22:56 33.24032 -95.64433 24280 ft 439 kts 64°
2026-05-03 22:56 33.25202 -95.61060 24563 ft 441 kts 64°
2026-05-03 22:56 33.26378 -95.57667 24832 ft 443 kts 64°
2026-05-03 22:56 33.27539 -95.54315 25088 ft 445 kts 63°
2026-05-03 22:57 33.28724 -95.50888 25355 ft 447 kts 63°
2026-05-03 22:57 33.29916 -95.47438 25649 ft 450 kts 63°
2026-05-03 22:57 33.31104 -95.43993 25926 ft 452 kts 63°
2026-05-03 22:57 33.32308 -95.40503 26221 ft 454 kts 63°
2026-05-03 22:58 33.33514 -95.36999 26512 ft 457 kts 63°
2026-05-03 22:58 33.34743 -95.33427 26826 ft 460 kts 63°
2026-05-03 22:58 33.35943 -95.29934 27150 ft 461 kts 63°
2026-05-03 22:58 33.37180 -95.26330 27465 ft 464 kts 63°
2026-05-03 22:59 33.38393 -95.22790 27778 ft 467 kts 63°
2026-05-03 22:59 33.39642 -95.19139 28103 ft 469 kts 63°
2026-05-03 22:59 33.40865 -95.15563 28431 ft 472 kts 63°
2026-05-03 22:59 33.42111 -95.11916 28741 ft 475 kts 63°
2026-05-03 23:00 33.43363 -95.08247 29054 ft 477 kts 62°
2026-05-03 23:00 33.44636 -95.04516 29357 ft 480 kts 63°
2026-05-03 23:00 33.45885 -95.00850 29689 ft 483 kts 63°
2026-05-03 23:00 33.47154 -94.97115 30015 ft 485 kts 63°
2026-05-03 23:01 33.48430 -94.93361 30365 ft 487 kts 63°
2026-05-03 23:01 33.49705 -94.89596 30694 ft 489 kts 63°
2026-05-03 23:01 33.50987 -94.85814 30959 ft 491 kts 63°
2026-05-03 23:01 33.52276 -94.82009 31238 ft 494 kts 63°
2026-05-03 23:02 33.53567 -94.78189 31508 ft 496 kts 63°
2026-05-03 23:02 33.54865 -94.74345 31779 ft 499 kts 63°
2026-05-03 23:02 33.56167 -94.70485 32048 ft 501 kts 63°
2026-05-03 23:02 33.57474 -94.66602 32324 ft 503 kts 63°
2026-05-03 23:03 33.58784 -94.62708 32571 ft 506 kts 62°
2026-05-03 23:03 33.60103 -94.58786 32857 ft 508 kts 63°
2026-05-03 23:03 33.61427 -94.54841 33113 ft 512 kts 63°
2026-05-03 23:04 33.64129 -94.46786 33058 ft 526 kts 63°
2026-05-03 23:04 33.66844 -94.38647 33052 ft 526 kts 63°
2026-05-03 23:05 33.69559 -94.30491 33048 ft 526 kts 63°
2026-05-03 23:05 33.72526 -94.22515 33048 ft 519 kts 54°
2026-05-03 23:06 33.76152 -94.15037 33054 ft 517 kts 54°
2026-05-03 23:06 33.79727 -94.07559 33042 ft 515 kts 54°
2026-05-03 23:07 33.83291 -94.00090 33023 ft 514 kts 54°
2026-05-03 23:07 33.86839 -93.92640 33011 ft 513 kts 54°
2026-05-03 23:08 33.90381 -93.85192 33080 ft 515 kts 54°
2026-05-03 23:08 33.93945 -93.77685 33063 ft 517 kts 55°
2026-05-03 23:09 33.97501 -93.70170 33058 ft 516 kts 55°
2026-05-03 23:09 34.01053 -93.62650 33063 ft 517 kts 55°
2026-05-03 23:10 34.04695 -93.55196 33064 ft 512 kts 49°
2026-05-03 23:10 34.08970 -93.48385 33055 ft 509 kts 47°
2026-05-03 23:11 34.13238 -93.41560 33052 ft 509 kts 47°
2026-05-03 23:11 34.17507 -93.34720 33070 ft 510 kts 47°
2026-05-03 23:12 34.21775 -93.27871 33050 ft 511 kts 47°
2026-05-03 23:12 34.26042 -93.21015 33053 ft 511 kts 47°
2026-05-03 23:13 34.30309 -93.14144 33056 ft 511 kts 47°
2026-05-03 23:13 34.34575 -93.07261 33057 ft 511 kts 47°
2026-05-03 23:14 34.38837 -93.00373 33072 ft 511 kts 47°
2026-05-03 23:14 34.43094 -92.93477 33069 ft 511 kts 47°
2026-05-03 23:15 34.47346 -92.86579 33054 ft 511 kts 47°
2026-05-03 23:15 34.51595 -92.79672 33051 ft 511 kts 47°
2026-05-03 23:16 34.55839 -92.72759 33047 ft 511 kts 48°
2026-05-03 23:16 34.60050 -92.65886 33060 ft 511 kts 48°
2026-05-03 23:17 34.64284 -92.58963 33051 ft 510 kts 48°
2026-05-03 23:17 34.68509 -92.52042 33040 ft 510 kts 48°
2026-05-03 23:18 34.72757 -92.45068 33037 ft 510 kts 48°
2026-05-03 23:18 34.76971 -92.38137 33027 ft 510 kts 48°
2026-05-03 23:19 34.81162 -92.31229 33031 ft 510 kts 48°
2026-05-03 23:19 34.85406 -92.24222 33044 ft 511 kts 48°
2026-05-03 23:20 34.89616 -92.17256 33034 ft 511 kts 48°
2026-05-03 23:20 34.93794 -92.10330 33033 ft 510 kts 48°
2026-05-03 23:21 34.97994 -92.03354 33051 ft 510 kts 48°
2026-05-03 23:21 35.02033 -91.96145 33046 ft 513 kts 52°
2026-05-03 23:22 35.07835 -91.85158 33076 ft 512 kts 51°
2026-05-03 23:22 35.11701 -91.77850 33073 ft 512 kts 51°
2026-05-03 23:23 35.15555 -91.70540 33052 ft 512 kts 51°
2026-05-03 23:23 35.19366 -91.63295 33044 ft 511 kts 52°
2026-05-03 23:24 35.23203 -91.55978 33042 ft 511 kts 52°
2026-05-03 23:24 35.27038 -91.48649 33063 ft 512 kts 52°
2026-05-03 23:25 35.30867 -91.41310 33071 ft 512 kts 52°
2026-05-03 23:25 35.34699 -91.33954 33084 ft 512 kts 52°
2026-05-03 23:26 35.38504 -91.26633 33082 ft 511 kts 52°
2026-05-03 23:26 35.42332 -91.19250 33079 ft 511 kts 52°
2026-05-03 23:27 35.46148 -91.11877 33090 ft 512 kts 52°
2026-05-03 23:27 35.49949 -91.04517 33104 ft 511 kts 52°
2026-05-03 23:28 35.53752 -90.97139 33075 ft 512 kts 52°
2026-05-03 23:28 35.57562 -90.89730 33072 ft 512 kts 52°
2026-05-03 23:29 35.61358 -90.82331 33062 ft 512 kts 52°
2026-05-03 23:29 35.65149 -90.74928 33069 ft 512 kts 52°
2026-05-03 23:30 35.68299 -90.68764 33060 ft 512 kts 52°
2026-05-03 23:30 35.72105 -90.61301 33052 ft 512 kts 52°
2026-05-03 23:31 35.75884 -90.53876 33058 ft 512 kts 52°
2026-05-03 23:31 35.79660 -90.46443 33051 ft 512 kts 52°
2026-05-03 23:32 35.83434 -90.38994 33052 ft 512 kts 52°
2026-05-03 23:32 35.87205 -90.31536 33052 ft 513 kts 52°
2026-05-03 23:33 35.90953 -90.24107 33051 ft 513 kts 52°
2026-05-03 23:33 35.94717 -90.16631 33045 ft 513 kts 52°
2026-05-03 23:34 35.98476 -90.09147 33036 ft 513 kts 52°
2026-05-03 23:34 36.02227 -90.01665 33035 ft 513 kts 52°
2026-05-03 23:35 36.05984 -89.94152 33050 ft 513 kts 52°
2026-05-03 23:35 36.09727 -89.86651 33048 ft 513 kts 52°
2026-05-03 23:36 36.13463 -89.79151 33039 ft 513 kts 52°
2026-05-03 23:36 36.17194 -89.71640 33040 ft 512 kts 52°
2026-05-03 23:37 36.20921 -89.64123 33049 ft 512 kts 52°
2026-05-03 23:37 36.24646 -89.56593 33060 ft 512 kts 52°
2026-05-03 23:38 36.28368 -89.49052 33044 ft 513 kts 52°
2026-05-03 23:38 36.32090 -89.41494 33042 ft 514 kts 52°
2026-05-03 23:39 36.35807 -89.33927 33046 ft 514 kts 52°
2026-05-03 23:39 36.39527 -89.26340 33039 ft 514 kts 52°
2026-05-03 23:40 36.43239 -89.18751 33048 ft 515 kts 52°
2026-05-03 23:40 36.46948 -89.11152 33042 ft 515 kts 52°
2026-05-03 23:41 36.50658 -89.03532 33037 ft 515 kts 52°
2026-05-03 23:41 36.54362 -88.95911 33030 ft 515 kts 52°
2026-05-03 23:42 36.58067 -88.88268 33045 ft 516 kts 52°
2026-05-03 23:42 36.61768 -88.80617 33040 ft 517 kts 52°
2026-05-03 23:43 36.65470 -88.72943 33040 ft 517 kts 52°
2026-05-03 23:43 36.69166 -88.65266 33044 ft 517 kts 52°
2026-05-03 23:44 36.72861 -88.57573 33050 ft 517 kts 52°
2026-05-03 23:44 36.76558 -88.49860 33045 ft 518 kts 52°
2026-05-03 23:45 36.80257 -88.42124 33047 ft 520 kts 52°
2026-05-03 23:45 36.83953 -88.34373 33049 ft 520 kts 52°
2026-05-03 23:46 36.87648 -88.26609 33054 ft 520 kts 52°
2026-05-03 23:46 36.91339 -88.18836 33052 ft 520 kts 52°
2026-05-03 23:47 36.95024 -88.11056 33040 ft 520 kts 52°
2026-05-03 23:47 36.98710 -88.03257 33034 ft 521 kts 52°
2026-05-03 23:48 37.02391 -87.95450 33032 ft 522 kts 52°
2026-05-03 23:48 37.06077 -87.87614 33031 ft 522 kts 52°
2026-05-03 23:49 37.09754 -87.79776 33040 ft 522 kts 52°
2026-05-03 23:49 37.13426 -87.71931 33029 ft 522 kts 53°
2026-05-03 23:50 37.16481 -87.65393 33024 ft 523 kts 53°
2026-05-03 23:50 37.20770 -87.56188 33030 ft 523 kts 53°
2026-05-03 23:51 37.24440 -87.48292 33034 ft 524 kts 53°
2026-05-03 23:51 37.28108 -87.40382 33042 ft 524 kts 53°
2026-05-03 23:52 37.31767 -87.32470 33053 ft 524 kts 53°
2026-05-03 23:52 37.35423 -87.24547 33038 ft 525 kts 53°
2026-05-03 23:53 37.39082 -87.16597 33036 ft 525 kts 53°
2026-05-03 23:53 37.42712 -87.08692 33037 ft 525 kts 53°
2026-05-03 23:54 37.46360 -87.00729 33037 ft 526 kts 53°
2026-05-03 23:54 37.50012 -86.92739 33033 ft 527 kts 53°
2026-05-03 23:55 37.53662 -86.84731 33025 ft 528 kts 53°
2026-05-03 23:55 37.61112 -86.68328 33032 ft 529 kts 53°
2026-05-03 23:56 37.73000 -86.41979 33027 ft 532 kts 53°
2026-05-03 23:56 37.80914 -86.24315 33021 ft 532 kts 53°
2026-05-03 23:57 37.89173 -86.05779 33055 ft 532 kts 53°
2026-05-03 23:57 37.96450 -85.89362 33269 ft 537 kts 53°
2026-05-03 23:58 38.00085 -85.81125 34241 ft 533 kts 53°
2026-05-03 23:58 38.03707 -85.72916 34890 ft 534 kts 54°
2026-05-03 23:58 38.07322 -85.64701 35025 ft 530 kts 54°
2026-05-03 23:58 38.10489 -85.56153 35026 ft 541 kts 65°
2026-05-03 23:59 38.14366 -85.37461 35027 ft 549 kts 71°
2026-05-03 23:59 38.18097 -85.18662 35035 ft 549 kts 71°
2026-05-04 00:00 38.21751 -84.99962 35034 ft 549 kts 71°
2026-05-04 00:00 38.25411 -84.81056 35042 ft 550 kts 71°
2026-05-04 00:01 38.29045 -84.62119 35036 ft 552 kts 72°
2026-05-04 00:01 38.32658 -84.43108 35039 ft 552 kts 72°
2026-05-04 00:02 38.36242 -84.24063 35030 ft 553 kts 72°
2026-05-04 00:02 38.39800 -84.04975 35041 ft 554 kts 72°
2026-05-04 00:03 38.43333 -83.85844 35052 ft 554 kts 73°
2026-05-04 00:03 38.46836 -83.66676 35055 ft 555 kts 73°
2026-05-04 00:04 38.50315 -83.47460 35051 ft 556 kts 73°
2026-05-04 00:04 38.53773 -83.28160 35046 ft 558 kts 73°
2026-05-04 00:05 38.57201 -83.08836 35059 ft 558 kts 73°
2026-05-04 00:05 38.60603 -82.89460 35061 ft 558 kts 74°
2026-05-04 00:06 38.63968 -82.70098 35059 ft 557 kts 74°
2026-05-04 00:06 38.67295 -82.50741 35041 ft 557 kts 74°
2026-05-04 00:07 38.70593 -82.31351 35036 ft 557 kts 75°
2026-05-04 00:07 38.73861 -82.11949 35042 ft 558 kts 75°
2026-05-04 00:08 38.77122 -81.92516 35041 ft 558 kts 75°
2026-05-04 00:08 38.80414 -81.73047 35044 ft 558 kts 75°
2026-05-04 00:09 38.83669 -81.53553 35047 ft 560 kts 75°
2026-05-04 00:09 38.86893 -81.34000 35030 ft 560 kts 75°
2026-05-04 00:10 38.90063 -81.14572 35018 ft 560 kts 75°
2026-05-04 00:10 38.93229 -80.94950 35033 ft 562 kts 75°
2026-05-04 00:11 38.96366 -80.75284 35024 ft 563 kts 76°
2026-05-04 00:11 38.99474 -80.55576 35053 ft 563 kts 76°
2026-05-04 00:12 39.02548 -80.35852 35042 ft 562 kts 76°
2026-05-04 00:12 39.05587 -80.16135 35040 ft 562 kts 76°
2026-05-04 00:13 39.08585 -79.96447 35048 ft 562 kts 77°
2026-05-04 00:13 39.11558 -79.76685 35054 ft 563 kts 77°
2026-05-04 00:14 39.14501 -79.56880 35078 ft 563 kts 77°
2026-05-04 00:14 39.17408 -79.37071 35048 ft 563 kts 77°
2026-05-04 00:15 39.19822 -79.20443 35042 ft 563 kts 77°
2026-05-04 00:15 39.22650 -79.00734 35032 ft 563 kts 77°
2026-05-04 00:16 39.25463 -78.80875 35026 ft 564 kts 77°
2026-05-04 00:16 39.28249 -78.60957 35047 ft 562 kts 78°
2026-05-04 00:17 39.30985 -78.41126 35031 ft 559 kts 78°
2026-05-04 00:17 39.33677 -78.21376 35005 ft 558 kts 78°
2026-05-04 00:18 39.36333 -78.01624 34997 ft 558 kts 78°
2026-05-04 00:18 39.38969 -77.81829 35032 ft 560 kts 78°
2026-05-04 00:19 39.41510 -77.61943 35043 ft 560 kts 79°
2026-05-04 00:19 39.44029 -77.42064 35038 ft 560 kts 79°
2026-05-04 00:20 39.46515 -77.22169 35037 ft 560 kts 79°
2026-05-04 00:20 39.48971 -77.02234 35013 ft 562 kts 79°
2026-05-04 00:21 39.51071 -76.92533 35015 ft 558 kts 65°
2026-05-04 00:21 39.53888 -76.83197 35017 ft 559 kts 66°
2026-05-04 00:21 39.59452 -76.64336 35009 ft 559 kts 66°
2026-05-04 00:22 39.64990 -76.45481 34992 ft 560 kts 66°
2026-05-04 00:22 39.70510 -76.26554 35011 ft 560 kts 66°
2026-05-04 00:23 39.75992 -76.07624 34976 ft 560 kts 66°
2026-05-04 00:23 39.81453 -75.88628 34980 ft 561 kts 66°
2026-05-04 00:24 39.86897 -75.69553 34991 ft 563 kts 66°
2026-05-04 00:24 39.92332 -75.50368 35013 ft 566 kts 66°
2026-05-04 00:25 39.97749 -75.31103 35041 ft 566 kts 67°
2026-05-04 00:25 40.03122 -75.11850 35010 ft 564 kts 67°
2026-05-04 00:26 40.08440 -74.92652 34950 ft 561 kts 67°
2026-05-04 00:26 40.13718 -74.73458 34963 ft 560 kts 67°